Miscellaneous Local Product
Issued by NWS Hastings, NE

Home | Current Version | Previous Version | Graphics & Text | Print | Product List | Glossary On
Versions: 1 2 3 4 5 6 7 8 9 10 11 12 13 14 15 16 17 18 19 20 21 22 23 24 25 26 27 28 29 30 31 32 33 34 35 36 37 38 39 40 41 42 43 44 45 46 47 48 49 50
298
AXUS43 KGID 062202
MISGRI

GID CWA HOURLY WEATHER ROUNDUP
NATIONAL WEATHER SERVICE HASTINGS NE
400 PM CST SAT FEB 06 2016

NOTE: "FAIR" INDICATES FEW OR NO CLOUDS BELOW 12,000 FEET WITH NO
SIGNIFICANT WEATHER AND/OR OBSTRUCTIONS TO VISIBILITY.

...SOUTH CENTRAL NEBRASKA...

CITY           SKY/WX    TMP DP  RH WIND       PRES   REMARKS
GRAND ISLAND   CLOUDY    34  24  67 SW20      30.05F WCI  23
HASTINGS       CLOUDY    34  22  61 SW13      30.07F WCI  25
ORD            CLOUDY    39  27  62 SW16      29.97F WCI  30
YORK           CLOUDY    34  25  69 SW15      30.08R WCI  24
AURORA         CLOUDY    35  26  69 SW16      30.06S WCI  25
LEXINGTON      CLOUDY    39  26  57 SW8       30.06S WCI  34
HOLDREGE       CLOUDY    35  25  66 SW14      30.08S WCI  25
HEBRON         CLOUDY    36  25  65 SW14      30.13F WCI  27

...NEBRASKA PANHANDLE...

CITY           SKY/WX    TMP DP  RH WIND       PRES   REMARKS
CHADRON        CLOUDY    48  29  47 W9        29.92F
ALLIANCE       CLOUDY    37  28  70 SW14      29.94F WCI  28
SCOTTSBLUFF    CLOUDY    43  25  49 W15G28    30.01F
SIDNEY         CLOUDY    41  28  60 W14       30.03F

...WESTERN AND NORTH CENTRAL NEBRASKA...

CITY           SKY/WX    TMP DP  RH WIND       PRES   REMARKS
VALENTINE      CLOUDY    45  27  49 W20       29.91S
AINSWORTH      CLOUDY    45  29  53 SW12      29.90F
ONEILL         MOSUNNY   40  30  65 S9        29.91F WCI  35
BROKEN BOW     MOSUNNY   38  27  64 SW14      29.97F WCI  30
IMPERIAL       CLOUDY    37  24  59 W9        30.07F WCI  30
NORTH PLATTE   CLOUDY    38  25  59 W10       30.03F WCI  31
MCCOOK         CLOUDY    37  25  61 SW8       30.09F WCI  31

...EASTERN NEBRASKA...

CITY           SKY/WX    TMP DP  RH WIND       PRES   REMARKS
NORFOLK        CLOUDY    36  27  69 SW14      29.96F WCI  27
SO SIOUX CITY  CLOUDY    39  26  59 S14       29.99F WCI  31
TEKAMAH        CLOUDY    35  28  75 S17       30.04F WCI  25
COLUMBUS       CLOUDY    36  21  55 SW12G18   30.04F WCI  27
ALBION         CLOUDY    37  28  69 S8        30.00F WCI  30
OMAHA EPPLEY   CLOUDY    41  27  57 S14       30.08F
OFFUTT AFB     CLOUDY    40  29  64 S8        30.09F WCI  34
MILLARD        CLOUDY    40  28  61 S12       30.09F WCI  33
LINCOLN        CLOUDY    38  25  59 SW16      30.11F WCI  29
NEBRASKA CITY  SUNNY     42  31  66 SW12      30.13F
BEATRICE       SUNNY     42  30  62 SW16      30.12F
FALLS CITY     SUNNY     48  28  46 SW16      30.15F

...NORTHERN KANSAS...

CITY           SKY/WX    TMP DP  RH WIND       PRES   REMARKS
GOODLAND       CLOUDY    41  23  48 SW17      30.11F
HILL CITY      SUNNY     42  27  55 SW10      30.13F
NORTON         CLEAR     37  25  60 SW12      30.10  WCI  30
PHILLIPSBURG   SUNNY     43  27  52 CALM      30.14S
BELOIT         SUNNY     46  25  42 SW13      30.15F
HAYS           SUNNY     43  25  49 SW13      30.16F
RUSSELL        SUNNY     44  29  55 SW14      30.15F
CONCORDIA      SUNNY     48  24  39 SW16G23   30.14F
SALINA         SUNNY     53  21  28 SW14      30.18F
TOPEKA         SUNNY     50  27  40 SW15      30.20F



USA.gov is the U.S. government's official web portal to all federal, state and local government web resources and services.